{"data":{"norad_id":61722,"epoch":"2026-05-25T02:40:09.693984Z","epoch_age_seconds":62452,"freshness":"FRESH","line1":"1 61722U 24196R   26145.11122331 -.00000239  00000+0  40736-5 0  9991","line2":"2 61722  53.1602 106.6133 0001289  86.2922 273.8226 15.30196304 88857","mean_motion":15.30196304,"eccentricity":0.0001289,"inclination_deg":53.1602,"raan_deg":106.6133,"arg_perigee_deg":86.2922,"mean_anomaly_deg":273.8226,"bstar":4.0736e-6,"rev_number":8885,"period_min":94.105573006272,"perigee_km":474.34270652709,"apogee_km":476.10950353557,"semimajor_km":6853.3631050313,"source":"CELESTRAK","updated_at":"2026-05-25T13:38:19.447120Z"}}